"Time","Temp","Dewpoint","Humidity","Pressure","Direction","Speed","Gust","Precip","PrecipRate"
"00:04:58","31.4","20.6","63.9","30.33","164","0","0","0.00","0.00"
"00:09:58","31","21.1","66.5","30.33","164","0","0","0.00","0.00"
"00:14:57","30.6","20.5","65.8","30.33","164","0","0","0.00","0.00"
"00:19:58","30.2","20.1","65.7","30.33","164","0","0","0.00","0.00"
"00:24:56","29.9","20.8","68.3","30.33","164","0","0","0.00","0.00"
"00:29:56","29.6","20.5","68.5","30.34","164","0","0","0.00","0.00"
"00:34:58","29.4","20.6","69.2","30.34","164","0","0","0.00","0.00"
"00:39:59","29.4","20.1","67.8","30.34","164","0","0","0.00","0.00"
"00:44:57","29.7","19.8","66.4","30.34","164","0","0","0.00","0.00"
"00:49:58","29.9","19.6","65","30.34","164","0","0","0.00","0.00"
"00:54:55","29.9","19.6","65","30.34","164","0","0","0.00","0.00"
"00:59:56","29.8","19.2","64.2","30.35","163","0.6","2.4","0.00","0.00"
"01:04:57","29.7","19.3","64.7","30.35","163","1.6","2.4","0.00","0.00"
"01:09:57","29.6","19","64.3","30.35","163","0","1.2","0.00","0.00"
"01:14:59","29.4","20","67.7","30.35","163","0","0","0.00","0.00"
"01:19:59","29","19.8","68","30.34","163","0","0","0.00","0.00"
"01:24:56","28.7","19.6","68.5","30.34","163","0","0","0.00","0.00"
"01:29:57","28.5","19.5","68.8","30.35","163","0","0","0.00","0.00"
"01:34:59","28.4","19.3","68.4","30.35","163","0","0","0.00","0.00"
"01:39:56","28.2","18.9","67.7","30.35","163","0","0","0.00","0.00"
"01:44:58","28","18.9","68.4","30.35","163","0","0","0.00","0.00"
"01:49:59","27.9","18.9","68.6","30.35","163","0","0","0.00","0.00"
"01:54:56","27.9","18.8","68.4","30.35","163","0","0","0.00","0.00"
"01:59:58","27.8","18.9","69","30.35","163","0","0","0.00","0.00"
"02:04:59","27.7","18.8","69","30.35","163","0","0","0.00","0.00"
"02:09:58","27.6","19","69.9","30.35","163","0","0","0.00","0.00"
"02:14:56","27.4","19.5","72","30.35","163","0","0","0.00","0.00"
"02:19:57","27.1","19.2","71.8","30.35","163","0.1","2.4","0.00","0.00"
"02:24:58","27.1","18.8","70.4","30.35","163","1.5","2.4","0.00","0.00"
"02:29:58","27.3","18.7","69.6","30.35","163","0.2","2.4","0.00","0.00"
"02:34:59","27.4","18.3","68.3","30.35","163","0.8","2.4","0.00","0.00"
"02:39:56","27.4","18.2","68","30.35","163","0.3","1.2","0.00","0.00"
"02:44:57","27.4","18.2","68","30.35","163","0","0","0.00","0.00"
"02:49:58","27.3","18.6","69.3","30.35","163","1.7","3.6","0.00","0.00"
"02:54:59","27.2","18.4","69","30.35","163","0.2","2.4","0.00","0.00"
"02:59:56","27.1","18.6","70","30.35","163","0","0","0.00","0.00"
"03:04:59","26.8","19.1","72.4","30.35","163","0","1.2","0.00","0.00"
"03:09:58","26.4","18.8","72.7","30.35","163","0.1","1.2","0.00","0.00"
"03:14:56","26.2","18.5","72.2","30.35","163","0","0","0.00","0.00"
"03:19:57","26.1","18.2","71.7","30.35","163","1","3.6","0.00","0.00"
"03:24:57","26","18.2","71.8","30.35","163","0.1","3.5","0.00","0.00"
"03:29:57","25.9","18.3","72.6","30.35","163","0","0","0.00","0.00"
"03:34:57","25.7","18.8","74.7","30.35","163","0","0","0.00","0.00"
"03:39:59","25.5","18.6","74.6","30.35","163","0","0","0.00","0.00"
"03:44:56","25.3","18.1","73.7","30.35","163","0.2","2.4","0.00","0.00"
"03:49:56","25.3","17.9","73","30.35","163","1.6","2.4","0.00","0.00"
"03:54:57","25.5","17.7","72","30.35","163","0.2","1.2","0.00","0.00"
"03:59:58","25.7","17.6","71.3","30.35","163","0","0","0.00","0.00"
"04:04:59","25.7","17.6","71","30.35","163","0","0","0.00","0.00"
"04:09:58","25.5","17.8","72.1","30.35","163","0","0","0.00","0.00"
"04:14:56","25.3","18.3","74.2","30.35","163","0","0","0.00","0.00"
"04:19:57","25.1","18.3","75","30.35","164","0","0","0.00","0.00"
"04:24:57","24.8","17.9","74.5","30.35","164","0","0","0.00","0.00"
"04:29:58","24.7","17.8","74.7","30.35","164","0","0","0.00","0.00"
"04:34:59","24.5","17.2","73.2","30.35","164","0","0","0.00","0.00"
"04:39:57","24.4","17.1","73.2","30.35","164","0","0","0.00","0.00"
"04:44:57","24.3","17.7","75.8","30.35","164","0","0","0.00","0.00"
"04:49:58","24.1","18.2","78","30.35","164","0","0","0.00","0.00"
"04:54:59","23.9","17.9","77.8","30.35","164","0","0","0.00","0.00"
"04:59:56","23.8","17.5","76.9","30.36","164","0","0","0.00","0.00"
"05:04:57","23.8","17.3","76","30.36","164","0.1","1.2","0.00","0.00"
"05:09:56","23.9","17.1","75.1","30.36","164","0","0","0.00","0.00"
"05:14:57","23.8","17.3","75.9","30.36","164","0","0","0.00","0.00"
"05:19:57","23.7","17.5","76.9","30.36","164","0","0","0.00","0.00"
"05:24:58","23.5","17.6","78","30.36","164","0.1","1.2","0.00","0.00"
"05:29:59","23.3","17.4","77.7","30.36","164","0","1.2","0.00","0.00"
"05:34:56","23.3","17.2","77","30.36","164","0","0","0.00","0.00"
"05:39:57","23.4","17.3","77","30.36","164","0.7","2.4","0.00","0.00"
"05:44:57","23.4","17.4","77.4","30.36","164","0","0","0.00","0.00"
"05:49:58","23.3","17.4","77.6","30.36","164","0.2","1.2","0.00","0.00"
"05:54:59","23.3","17.4","77.5","30.36","164","0","0","0.00","0.00"
"05:59:59","23.1","17.3","78","30.37","164","0","0","0.00","0.00"
"06:04:57","22.9","17.4","78.8","30.37","164","0","0","0.00","0.00"
"06:09:57","22.8","17.1","78.4","30.37","164","0.1","1.2","0.00","0.00"
"06:14:58","22.7","16.9","78","30.38","164","0.9","2.4","0.00","0.00"
"06:19:58","22.9","17.1","78","30.38","164","0.1","1.2","0.00","0.00"
"06:24:59","22.9","17.1","78","30.38","164","0","0","0.00","0.00"
"06:29:56","22.8","17","78","30.38","164","0","0","0.00","0.00"
"06:34:56","22.6","17.1","78.8","30.38","164","0","0","0.00","0.00"
"06:39:57","22.5","16.8","78.4","30.38","164","0","0","0.00","0.00"
"06:44:58","22.3","16.5","78","30.38","164","0","1.2","0.00","0.00"
"06:49:59","22.2","16.4","78.1","30.38","164","1","2.4","0.00","0.00"
"06:54:56","22.3","16.8","79","30.38","164","1.1","2.4","0.00","0.00"
"06:59:57","22.4","16.9","78.8","30.39","164","0","1.2","0.00","0.00"
"07:04:57","22.4","16.9","79.2","30.39","164","0","1.2","0.00","0.00"
"07:09:57","22.3","17.2","80.5","30.39","164","0","0","0.00","0.00"
"07:14:59","22.1","17.1","80.7","30.40","164","0","0","0.00","0.00"
"07:19:59","22.1","16.9","80","30.40","164","0","0","0.00","0.00"
"07:24:57","22.1","16.9","80","30.40","164","0","0","0.00","0.00"
"07:29:58","22.2","17.2","80.6","30.41","164","0","0","0.00","0.00"
"07:34:59","22.3","17.2","80.3","30.41","164","0","0","0.00","0.00"
"07:39:56","22.5","17.3","80","30.41","164","0","0","0.00","0.00"
"07:44:57","22.8","17.6","80","30.42","164","0","0","0.00","0.00"
"07:49:58","23.2","17.9","80","30.42","164","0","0","0.00","0.00"
"07:54:59","23.6","18.1","79.5","30.42","164","0","0","0.00","0.00"
"07:59:59","24.4","18.9","79.3","30.43","164","0","0","0.00","0.00"
"08:04:56","25.3","19.4","77.9","30.43","164","0","0","0.00","0.00"
"08:09:59","25.9","19.7","77","30.43","164","0","0","0.00","0.00"
"08:14:56","26.5","20.5","77.7","30.43","164","0","0","0.00","0.00"
"08:19:59","27.1","20.8","76.7","30.43","164","0","0","0.00","0.00"
"08:24:56","28","21.6","76.8","30.43","164","0","0","0.00","0.00"
"08:29:56","29.5","22.9","75.8","30.44","164","0","0","0.00","0.00"
"08:34:56","31","22.6","70.7","30.44","164","0","1.2","0.00","0.00"
"08:39:57","32.4","22.7","67.1","30.44","164","0.3","1.2","0.00","0.00"
"08:44:57","33.5","22.5","63.9","30.44","164","0.1","1.2","0.00","0.00"
"08:49:58","34.2","22.1","61","30.44","164","0","1.2","0.00","0.00"
"08:54:58","34.8","21.6","58.2","30.44","164","0","0","0.00","0.00"
"08:59:58","35.6","21.7","56.7","30.44","164","0","0","0.00","0.00"
"09:04:59","37","23.6","58","30.44","164","0","0","0.00","0.00"
"09:09:58","37.9","24.4","58.1","30.44","164","0","0","0.00","0.00"
"09:14:59","38.6","24.1","55.8","30.44","318","0","0","0.00","0.00"
"09:19:59","39.6","23.9","53","30.44","318","0","0","0.00","0.00"
"09:24:59","40.8","24.8","52.5","30.44","318","0","0","0.00","0.00"
"09:29:58","42.1","25.8","52.2","30.44","318","0","0","0.00","0.00"
"09:34:57","42.1","26","52.7","30.44","57","0.2","2.4","0.00","0.00"
"09:39:58","42.3","26.1","52.5","30.44","46","1.7","3.6","0.00","0.00"
"09:44:58","42.6","27.2","54.3","30.45","37","1.2","2.4","0.00","0.00"
"09:49:59","43.4","26.7","51.5","30.45","37","0.5","2.4","0.00","0.00"
"09:54:56","44.5","26.3","48.6","30.45","37","0.4","2.4","0.00","0.00"
"09:59:56","45.6","25.9","45.8","30.45","38","1.1","3.6","0.00","0.00"
"10:04:56","46.2","26","45.1","30.45","38","1","2.4","0.00","0.00"
"10:09:59","46.8","25.8","43.7","30.45","38","0.7","2.4","0.00","0.00"
"10:14:56","47","26","43.6","30.45","38","1.8","2.4","0.00","0.00"
"10:19:57","47.1","25.7","42.9","30.45","37","1.2","3.6","0.00","0.00"
"10:24:58","48.9","27.4","43.2","30.45","37","0.7","2.4","0.00","0.00"
"10:29:59","50.2","28.8","43.4","30.45","70","1.1","3.6","0.00","0.00"
"10:34:56","50.2","26.7","39.9","30.45","134","1.3","3.6","0.00","0.00"
"10:39:57","50.3","27.3","40.8","30.45","134","1.6","3.6","0.00","0.00"
"10:44:58","51.3","27.6","39.9","30.45","134","1.9","3.6","0.00","0.00"
"10:49:58","52.5","28.2","39","30.45","134","0.7","3.5","0.00","0.00"
"10:54:59","53.4","28","37.5","30.45","132","1.2","3.6","0.00","0.00"
"10:59:56","53.5","27.4","36.3","30.45","131","1.7","3.6","0.00","0.00"
"11:04:56","53.4","26.5","35.2","30.45","131","1.5","3.6","0.00","0.00"
"11:09:59","54.5","27.7","35.5","30.45","132","0.6","2.4","0.00","0.00"
"11:14:56","55.3","27.9","34.9","30.45","91","1.9","4.8","0.00","0.00"
"11:19:56","55.3","26.6","32.9","30.45","105","1.5","4.6","0.00","0.00"
"11:24:56","55.7","26.6","32.5","30.45","111","1.4","4.8","0.00","0.00"
"11:29:57","55.7","25.9","31.6","30.45","141","1.4","4.6","0.00","0.00"
"11:34:57","55.9","24.6","29.7","30.45","145","1.5","4.8","0.00","0.00"
"11:39:57","56.2","26.8","32.1","30.45","120","2.5","4.8","0.00","0.00"
"11:44:57","57.2","25.3","29.2","30.45","115","2.9","4.8","0.00","0.00"
"11:49:59","57.1","24.7","28.6","30.44","63","2.2","4.8","0.00","0.00"
"11:54:57","57.5","22","25.1","30.44","113","1.9","4.8","0.00","0.00"
"11:59:57","58","21.1","23.8","30.44","174","1.4","4.8","0.00","0.00"
"12:04:58","58.3","22.7","25.2","30.44","115","3.3","6","0.00","0.00"
"12:09:57","57.9","23.2","26.1","30.44","160","4.1","6","0.00","0.00"
"12:14:58","58.2","24","26.6","30.45","240","2.4","4.8","0.00","0.00"
"12:19:58","58.5","21.3","23.5","30.45","172","3.9","8.4","0.00","0.00"
"12:24:58","58.5","20.4","22.8","30.45","195","1.6","6","0.00","0.00"
"12:29:58","59","23.9","26","30.45","213","2.7","7.2","0.00","0.00"
"12:34:59","59.4","23.8","25.3","30.45","227","2.2","6.9","0.00","0.00"
"12:39:59","59.8","24.4","25.6","30.45","120","3.3","8.4","0.00","0.00"
"12:44:56","59.3","23.1","24.7","30.45","274","2.9","6","0.00","0.00"
"12:49:56","59.3","23.8","25.6","30.44","57","2.5","4.8","0.00","0.00"
"12:54:56","60","25.6","26.7","30.44","68","1.6","4.8","0.00","0.00"
"12:59:57","61","23.9","24","30.44","217","4.2","8.4","0.00","0.00"
"13:04:57","60.2","23.4","24.2","30.43","99","3.9","8.4","0.00","0.00"
"13:09:56","60.2","23.1","24","30.43","99","3.5","7.2","0.00","0.00"
"13:14:57","60.4","25.1","25.8","30.43","77","2.2","4.8","0.00","0.00"
"13:19:57","60.5","22.3","23","30.43","200","5.5","15","0.00","0.00"
"13:24:58","61.4","22","22","30.43","187","3.9","8.1","0.00","0.00"
"13:29:58","60.8","22.1","22.5","30.43","112","3.2","6","0.00","0.00"
"13:34:58","60.6","21.9","22.5","30.42","185","4","8.4","0.00","0.00"
"13:39:59","60.7","19","19.7","30.42","165","4.1","12","0.00","0.00"
"13:44:59","60.9","20.5","21","30.42","153","2.8","6","0.00","0.00"
"13:49:59","61.1","21.5","21.8","30.42","163","3","7.2","0.00","0.00"
"13:54:56","61.5","21.5","21.4","30.42","152","2.6","4.8","0.00","0.00"
"13:59:57","61.9","23","22.6","30.42","273","2.6","6","0.00","0.00"
"14:04:57","61.8","20.1","19.9","30.41","203","4.4","8.4","0.00","0.00"
"14:09:57","61.8","21.5","21.2","30.41","201","4.5","8.4","0.00","0.00"
"14:14:58","61.6","20.2","20.1","30.41","139","4.4","8.4","0.00","0.00"
"14:19:58","61.3","20.7","20.8","30.41","198","4.1","8.4","0.00","0.00"
"14:24:58","61.1","19.8","20.2","30.41","177","2.5","6","0.00","0.00"
"14:29:59","60.7","19.9","20.5","30.41","111","4.6","13.2","0.00","0.00"
"14:34:59","61.3","21.5","21.6","30.40","192","3.8","12.7","0.00","0.00"
"14:39:56","62.1","19.6","19.2","30.40","207","5.4","12","0.00","0.00"
"14:44:57","61.6","19.6","19.6","30.40","203","4.2","10.4","0.00","0.00"
"14:49:58","61.6","21.7","21.5","30.39","231","3.7","7.2","0.00","0.00"
"14:54:58","62.3","20.6","19.9","30.39","199","4.5","7.2","0.00","0.00"
"14:59:59","62.6","19.8","19.2","30.39","222","6.6","12","0.00","0.00"
"15:04:59","62","20.9","20.7","30.39","200","3.2","10.4","0.00","0.00"
"15:09:58","63.1","23.8","22.2","30.39","234","4.6","10.8","0.00","0.00"
"15:14:59","63.9","22.2","20.3","30.39","196","5.7","12","0.00","0.00"
"15:19:56","63.3","23.1","21.4","30.37","176","4.2","10.8","0.00","0.00"
"15:24:56","63.1","24.1","22.5","30.37","191","3.7","8.4","0.00","0.00"
"15:29:59","63.9","25.1","22.9","30.37","161","4.3","12","0.00","0.00"
"15:34:59","63.8","23.1","21","30.37","171","3.6","8.4","0.00","0.00"
"15:39:56","64.2","23","20.7","30.37","191","4.9","13.2","0.00","0.00"
"15:44:56","64.3","21.3","19.3","30.37","197","5","14.4","0.00","0.00"
"15:49:57","64.2","22","19.9","30.37","173","4.6","15","0.00","0.00"
"15:54:57","64.4","24.2","21.6","30.37","194","5.1","14.4","0.00","0.00"
"15:59:59","64","20.9","19","30.37","193","7.8","15","0.00","0.00"
"16:04:59","62.2","20.7","20.3","30.37","168","3.4","8.4","0.00","0.00"
"16:09:58","61.6","23","22.7","30.37","188","3.2","8.4","0.00","0.00"
"16:14:59","61.7","21.3","21","30.37","196","3.1","6","0.00","0.00"
"16:19:59","61.7","20.6","20.3","30.36","179","5","13.2","0.00","0.00"
"16:24:56","61.6","19","19.1","30.36","160","3.6","7.2","0.00","0.00"
"16:29:56","61.7","20.2","20.1","30.36","199","2.7","6","0.00","0.00"
"16:34:57","61.9","19.1","19.1","30.36","141","3.1","6","0.00","0.00"
"16:39:58","62","20.4","20","30.36","186","3.9","8.4","0.00","0.00"
"16:44:58","62","20.3","20","30.36","217","4.5","8.4","0.00","0.00"
"16:49:59","62","19.9","19.6","30.36","196","3","6","0.00","0.00"
"16:54:59","61.9","19.3","19.1","30.36","199","4.5","8.4","0.00","0.00"
"16:59:56","61.5","18.9","19.1","30.36","202","3.6","6.9","0.00","0.00"
"17:04:57","61.4","20.2","20.3","30.35","163","3.1","7.2","0.00","0.00"
"17:09:59","61.5","18.9","19.1","30.35","145","4.3","10.8","0.00","0.00"
"17:14:56","61.5","20.7","20.5","30.35","191","3.6","7.2","0.00","0.00"
"17:19:57","61.4","20.1","20.2","30.35","204","4.6","12","0.00","0.00"
"17:24:58","61.3","20.6","20.7","30.35","186","2.7","6","0.00","0.00"
"17:29:58","61.4","20.3","20.4","30.35","129","3","6","0.00","0.00"
"17:34:59","61.4","19.6","19.7","30.35","157","1.5","4.6","0.00","0.00"
"17:39:56","61.5","21.1","20.9","30.35","160","2.4","4.8","0.00","0.00"
"17:44:56","61.6","19.5","19.6","30.35","192","4.5","8.4","0.00","0.00"
"17:49:57","61.6","18.8","18.9","30.35","153","2.4","5.8","0.00","0.00"
"17:54:57","61.7","18.9","19","30.35","174","3.7","8.4","0.00","0.00"
"17:59:57","62","19.9","19.6","30.35","165","4.1","10.8","0.00","0.00"
"18:04:58","62.1","18.4","18.3","30.35","159","3.4","10.4","0.00","0.00"
"18:09:57","62","19.8","19.5","30.35","155","3.4","12","0.00","0.00"
"18:14:58","61.8","18.3","18.4","30.35","146","4.7","11.5","0.00","0.00"
"18:19:58","61.7","19.2","19.2","30.35","177","3.4","6","0.00","0.00"
"18:24:59","61.6","19.1","19.2","30.35","175","1.8","5.8","0.00","0.00"
"18:29:59","61.6","19.1","19.2","30.35","167","1.8","4.8","0.00","0.00"
"18:34:56","61.4","18.9","19.2","30.35","184","2","4.8","0.00","0.00"
"18:39:57","61.1","18.5","19","30.35","172","1.7","4.8","0.00","0.00"
"18:44:58","60.9","18","18.8","30.36","169","1.3","3.6","0.00","0.00"
"18:49:59","60.8","18.2","19","30.36","163","1.6","3.6","0.00","0.00"
"18:54:56","60.6","18.9","19.7","30.36","161","1","3.6","0.00","0.00"
"18:59:57","60.3","19.2","20.2","30.36","161","0.1","2.3","0.00","0.00"
"19:04:58","59.9","18.7","20","30.36","161","0.2","1.2","0.00","0.00"
"19:09:58","59.5","19.3","20.8","30.36","161","0","0","0.00","0.00"
"19:14:57","59.1","18.4","20.3","30.36","161","0","0","0.00","0.00"
"19:19:58","58.7","18.5","20.7","30.36","161","0.8","2.4","0.00","0.00"
"19:24:56","58.3","19.5","21.9","30.36","161","0.7","2.4","0.00","0.00"
"19:29:58","57.7","20.6","23.5","30.36","161","0.5","2.4","0.00","0.00"
"19:34:56","56.8","20.8","24.4","30.36","161","0.2","1.2","0.00","0.00"
"19:39:58","56.2","19.8","24","30.36","161","0.2","2.4","0.00","0.00"
"19:44:59","55.8","19","23.5","30.36","161","0.8","2.4","0.00","0.00"
"19:49:56","55.6","20.8","25.6","30.36","161","0.3","2.4","0.00","0.00"
"19:54:57","54.9","21.9","27.4","30.36","161","0.7","2.4","0.00","0.00"
"19:59:57","54.1","20.7","26.9","30.36","161","0.3","1.2","0.00","0.00"
"20:04:58","53.9","20.1","26.4","30.35","158","0.8","2.4","0.00","0.00"
"20:09:58","54.3","20.1","26","30.35","136","1.8","3.6","0.00","0.00"
"20:14:59","54.9","20.6","26","30.35","112","2.6","8.4","0.00","0.00"
"20:19:56","55.3","21.1","26.1","30.35","120","2.7","6","0.00","0.00"
"20:24:57","55.2","21.2","26.3","30.35","121","1.9","4.8","0.00","0.00"
"20:29:58","55.1","21.7","27","30.35","122","2.5","6","0.00","0.00"
"20:34:58","54.9","22.4","28","30.34","128","2.8","4.8","0.00","0.00"
"20:39:59","54.7","23","29","30.34","124","2.6","6","0.00","0.00"
"20:44:56","54.5","23","29.2","30.34","121","3.1","7.2","0.00","0.00"
"20:49:57","54.3","23.6","30.2","30.34","117","2.5","7.2","0.00","0.00"
"20:54:58","54","24","31","30.34","119","1.9","4.8","0.00","0.00"
"20:59:59","53.6","24","31.5","30.35","124","2","7.2","0.00","0.00"
"21:04:59","53.4","24.8","32.8","30.35","130","3.1","8.4","0.00","0.00"
"21:09:58","53.3","24.9","33.1","30.35","147","2.7","6","0.00","0.00"
"21:14:56","53.1","25.3","33.9","30.35","175","2","5.8","0.00","0.00"
"21:19:57","52.8","25.6","34.5","30.35","160","2.2","6","0.00","0.00"
"21:24:58","52.6","25.7","35","30.35","147","2.2","6","0.00","0.00"
"21:29:58","52.4","25.6","35.1","30.36","133","2.9","6","0.00","0.00"
"21:34:59","52.4","25.6","35.2","30.36","146","0.6","5.8","0.00","0.00"
"21:39:58","52.2","25.6","35.4","30.36","146","0","0","0.00","0.00"
"21:44:55","51.9","25.8","36.2","30.36","146","0","0","0.00","0.00"
"21:49:57","51.3","25.6","36.7","30.36","146","0","0","0.00","0.00"
"21:54:58","50.8","25.9","37.7","30.36","146","0","0","0.00","0.00"
"21:59:59","50.5","25.8","38","30.36","146","0","1.2","0.00","0.00"
"22:04:56","50.5","26.3","38.8","30.36","146","0.5","2.4","0.00","0.00"
"22:09:56","50.4","26.3","39","30.36","146","0.3","2.4","0.00","0.00"
"22:14:58","50.2","26.5","39.6","30.36","146","0.1","1.2","0.00","0.00"
"22:19:59","50","26.6","40","30.36","146","0","1.2","0.00","0.00"
"22:24:57","49.9","26.5","40","30.36","146","0","1.2","0.00","0.00"
"22:29:58","49.6","26.3","40.2","30.36","146","0.1","1.2","0.00","0.00"
"22:34:59","49.3","26.7","41.3","30.36","146","0","0","0.00","0.00"
"22:39:56","48.5","27.3","43.5","30.36","146","0","0","0.00","0.00"
"22:44:57","47.7","26.3","43","30.37","146","0","0","0.00","0.00"
"22:49:59","47","26.4","44.2","30.37","146","0","0","0.00","0.00"
"22:54:59","46.4","26.3","45.2","30.37","146","0.4","2.4","0.00","0.00"
"22:59:56","45.9","26.3","46","30.37","146","0.2","1.2","0.00","0.00"
"23:04:57","45.8","26.7","47","30.37","146","0.1","2.4","0.00","0.00"
"23:09:57","45.7","26.6","47","30.37","146","0.4","2.4","0.00","0.00"
"23:14:58","45.6","26.8","47.6","30.37","146","0","1.2","0.00","0.00"
"23:19:58","45.4","27.1","48.4","30.37","146","0","0","0.00","0.00"
"23:24:59","45.1","27.1","49","30.37","146","0","0","0.00","0.00"
"23:29:56","44.9","27","49.2","30.37","146","0","0","0.00","0.00"
"23:34:57","44.8","27.3","50","30.37","146","0","1.2","0.00","0.00"
"23:39:58","44.9","27.7","50.7","30.37","146","0","0","0.00","0.00"
"23:44:59","44.8","28.1","51.8","30.37","146","0","0","0.00","0.00"
"23:49:56","44.4","28","52.3","30.37","146","0","0","0.00","0.00"
"23:54:57","44.1","28.2","53.4","30.37","146","0","0","0.00","0.00"
